Terminal Aerodrome Forecast
Issued by NWS

Home | Current Version | Previous Version | Text Only | Print | Product List | Glossary On
Versions: 1 2 3 4 5 6 7 8 9 10 11 12
000
FTUS44 KTSA 290500
TAFBVO
TAF
KBVO 290520Z 2906/3006 00000KT P6SM SCT250
     FM291200 VRB03KT P6SM SCT110
     FM291800 08005KT P6SM SCT250
     FM300200 10004KT P6SM BKN250=

USA.gov is the U.S. government's official web portal to all federal, state and local government web resources and services.